GW3250 Weather Reports


time (UTC)temp
C
wind
direction
speed
KPH
gust
KPH
rain 1hr
cm
rain 24hr
cm
rain mn
cm
humidity
%
barometer
mb
20260510153746 17 187 3.2 4.8 0.00 0.00 0.00 75 1010.9
20260510153242 17 234 0.0 1.6 0.00 0.00 0.00 75 1010.7
20260510152734 17 228 3.2 4.8 0.00 0.00 0.00 76 1010.6
20260510152230 17 226 3.2 4.8 0.00 0.00 0.00 75 1010.6
20260510151727 18 235 6.4 9.7 0.00 0.00 0.00 73 1010.5
20260510151226 16 196 6.4 9.7 0.00 0.00 0.00 77 1010.5
20260510150721 16 239 0.0 1.6 0.00 0.00 0.00 79 1010.5
20260510150216 16 228 6.4 9.7 0.00 0.00 0.00 78 1010.3
20260510145712 17 243 3.2 4.8 0.00 0.00 0.00 83 1010.3
20260510145209 16 161 0.0 1.6 0.00 0.00 0.00 83 1010.5
20260510144705 16 161 1.6 1.6 0.00 0.00 0.00 85 1010.4
20260510144203 16 172 1.6 3.2 0.00 0.00 0.00 82 1010.3
20260510143657 16 172 3.2 3.2 0.00 0.00 0.00 83 1010.6
20260510143154 16 115 1.6 1.6 0.00 0.00 0.00 86 1010.5
20260510142650 16 264 4.8 6.4 0.00 0.00 0.00 83 1010.7
20260510142147 16 197 1.6 1.6 0.00 0.00 0.00 82 1010.5
20260510141644 16 197 1.6 3.2 0.00 0.00 0.00 84 1010.4
20260510141142 16 197 3.2 3.2 0.00 0.00 0.00 82 1010.5
20260510140638 17 241 4.8 4.8 0.00 0.00 0.00 83 1010.2
20260510140137 17 219 1.6 1.6 0.00 0.00 0.00 86 1010.3
20260510135633 16 219 1.6 3.2 0.00 0.00 0.00 86 1010.2
20260510135129 15 219 0.0 1.6 0.00 0.00 0.00 89 1010.4
20260510134626 16 225 1.6 3.2 0.00 0.00 0.00 83 1010.2
20260510134124 15 193 1.6 1.6 0.00 0.00 0.00 87 1009.9
20260510133620 15 188 1.6 1.6 0.00 0.00 0.00 84 1010.1
20260510133115 15 188 1.6 1.6 0.00 0.00 0.00 85 1010.1
20260510132612 14 188 1.6 1.6 0.00 0.00 0.00 89 1010.2
20260510132109 13 186 1.6 1.6 0.00 0.00 0.00 89 1010.2
20260510131607 14 186 3.2 3.2 0.00 0.00 0.00 89 1010.3
20260510131104 13 186 3.2 3.2 0.00 0.00 0.00 93 1010.4
20260510130600 13 186 0.0 0.0 0.00 0.00 0.00 92 1010.4
20260510130058 13 186 0.0 1.6 0.00 0.00 0.00 95 1010.2
20260510125554 12 186 0.0 0.0 0.00 0.00 0.00 96 1010.2
20260510125050 12 186 0.0 0.0 0.00 0.00 0.00 99 1010.3
20260510124547 12 186 1.6 1.6 0.00 0.00 0.00 99 1010.3
20260510124044 12 186 1.6 1.6 0.00 0.00 0.00 99 1009.8
20260510123539 12 186 0.0 0.0 0.00 0.00 0.00 99 1009.9
20260510123036 11 178 0.0 1.6 0.00 0.00 0.00 99 1010.1
20260510122531 11 179 0.0 1.6 0.00 0.00 0.00 99 1009.8
20260510122028 11 181 1.6 3.2 0.00 0.00 0.00 99 1010.2
20260510121525 11 180 0.0 1.6 0.00 0.00 0.00 99 1009.8
20260510121022 11 174 0.0 0.0 0.00 0.00 0.00 99 1009.8
20260510120520 11 197 3.2 3.2 0.00 0.00 0.00 99 1009.7
20260510120016 11 146 0.0 0.0 0.00 0.00 0.00 99 1009.6
20260510115512 11 145 0.0 0.0 0.00 0.00 0.00 99 1009.5
20260510115009 10 145 0.0 1.6 0.00 0.00 0.00 99 1009.2
20260510114505 10 145 0.0 0.0 0.00 0.00 0.00 99 1009.2
20260510114001 10 145 0.0 0.0 0.00 0.00 0.00 99 1009.1
20260510113456 10 143 0.0 0.0 0.00 0.00 0.00 99 1009.2
20260510112954 10 143 0.0 0.0 0.00 0.00 0.00 99 1009.0
20260510112451 10 143 0.0 0.0 0.00 0.00 0.00 99 1009.3
20260510111947 10 199 0.0 0.0 0.00 0.00 0.00 99 1009.4
20260510111443 10 199 0.0 0.0 0.00 0.00 0.00 99 1009.1
20260510110939 9 199 0.0 0.0 0.00 0.00 0.00 99 1009.1
20260510110435 9 199 0.0 0.0 0.00 0.00 0.00 99 1008.8
20260510105931 9 199 0.0 0.0 0.00 0.00 0.00 99 1008.9
20260510105427 9 199 0.0 0.0 0.00 0.00 0.00 99 1008.8
20260510104922 9 200 0.0 0.0 0.00 0.00 0.00 99 1008.8
20260510104419 9 199 0.0 0.0 0.00 0.00 0.00 99 1008.5
20260510103915 9 199 0.0 0.0 0.00 0.00 0.00 99 1008.7
20260510103413 9 199 0.0 0.0 0.00 0.00 0.00 99 1009.0
20260510102908 9 199 0.0 0.0 0.00 0.00 0.00 99 1008.6
20260510102404 9 199 0.0 0.0 0.00 0.00 0.00 99 1008.5
20260510101902 9 199 0.0 0.0 0.00 0.00 0.00 99 1008.6
20260510101359 9 199 0.0 0.0 0.00 0.00 0.00 99 1008.7
20260510100856 9 199 0.0 0.0 0.00 0.00 0.00 99 1008.7
20260510100353 9 199 0.0 0.0 0.00 0.00 0.00 99 1008.4
20260510095850 9 199 0.0 0.0 0.00 0.00 0.00 99 1008.4
20260510095344 9 199 0.0 0.0 0.00 0.00 0.00 99 1008.5
20260510094844 9 199 0.0 0.0 0.00 0.00 0.00 99 1008.4
20260510094339 9 198 0.0 0.0 0.00 0.00 0.00 99 1008.2
20260510093836 9 198 0.0 0.0 0.00 0.00 0.00 99 1008.2
20260510093332 9 198 0.0 0.0 0.00 0.00 0.00 99 1008.1
20260510092828 9 198 0.0 0.0 0.00 0.00 0.00 99 1008.3
20260510092324 9 198 0.0 1.6 0.00 0.00 0.00 99 1008.2
20260510091820 9 198 0.0 0.0 0.00 0.00 0.00 99 1008.0
20260510091318 9 203 0.0 0.0 0.00 0.00 0.00 99 1007.9
20260510090814 9 203 0.0 0.0 0.00 0.00 0.00 99 1008.0
20260510090311 9 203 1.6 1.6 0.00 0.00 0.00 99 1008.2
20260510085807 9 203 1.6 1.6 0.00 0.00 0.00 99 1007.9
20260510085307 9 203 0.0 0.0 0.00 0.00 0.00 99 1008.1
20260510084803 9 203 0.0 0.0 0.00 0.00 0.00 99 1007.8
20260510084259 9 203 1.6 1.6 0.00 0.00 0.00 99 1007.7
20260510083756 10 203 0.0 0.0 0.00 0.00 0.00 99 1007.8
20260510083254 10 203 0.0 0.0 0.00 0.00 0.00 99 1007.9
20260510082749 10 203 1.6 1.6 0.00 0.00 0.00 99 1007.9
20260510082245 9 203 0.0 0.0 0.00 0.00 0.00 99 1007.7
20260510081744 9 203 0.0 0.0 0.00 0.00 0.00 99 1007.9
20260510081241 9 203 0.0 0.0 0.00 0.00 0.00 99 1008.0
20260510080736 9 203 0.0 0.0 0.00 0.00 0.00 99 1008.1
20260510080232 9 203 0.0 0.0 0.00 0.00 0.00 99 1008.1
20260510075729 9 203 0.0 0.0 0.00 0.00 0.00 99 1008.1
20260510075227 9 203 0.0 0.0 0.00 0.00 0.00 99 1008.2
20260510074724 9 203 0.0 0.0 0.00 0.00 0.00 99 1008.1
20260510074220 9 203 0.0 0.0 0.00 0.00 0.00 99 1008.2
20260510073716 9 203 1.6 1.6 0.00 0.00 0.00 99 1008.1
20260510073212 9 203 1.6 1.6 0.00 0.00 0.00 99 1008.1
20260510072708 10 203 0.0 0.0 0.00 0.00 0.00 99 1008.7
20260510072205 10 203 0.0 0.0 0.00 0.00 0.00 99 1008.5
20260510071701 10 203 0.0 0.0 0.00 0.00 0.00 99 1008.7
20260510071158 10 204 1.6 1.6 0.00 0.00 0.00 99 1008.6
20260510070656 10 204 0.0 0.0 0.00 0.00 0.00 99 1008.7
20260510070154 10 204 0.0 0.0 0.00 0.00 0.00 99 1008.7
20260510065649 10 204 0.0 0.0 0.00 0.00 0.00 99 1008.8
20260510065145 10 204 0.0 0.0 0.00 0.00 0.00 99 1008.6
20260510064642 10 204 0.0 0.0 0.00 0.00 0.00 99 1008.9
20260510064138 10 204 1.6 1.6 0.00 0.00 0.00 99 1008.9
20260510063636 10 204 0.0 1.6 0.00 0.00 0.00 99 1009.0
20260510063132 10 204 1.6 1.6 0.00 0.00 0.00 99 1009.0
20260510062628 10 210 1.6 1.6 0.00 0.00 0.00 99 1009.0
20260510062124 10 230 0.0 1.6 0.00 0.00 0.00 99 1008.9
20260510061620 10 230 0.0 0.0 0.00 0.00 0.00 99 1008.9
20260510061118 10 230 0.0 0.0 0.00 0.00 0.00 99 1008.9
20260510060613 10 239 3.2 3.2 0.00 0.00 0.00 99 1008.6
20260510060110 10 206 1.6 1.6 0.00 0.00 0.00 99 1008.4
20260510055606 10 206 0.0 0.0 0.00 0.00 0.00 99 1008.6
20260510055105 10 217 0.0 0.0 0.00 0.00 0.00 99 1008.6
20260510054600 10 216 0.0 0.0 0.00 0.00 0.00 99 1008.7
20260510054055 10 216 0.0 0.0 0.00 0.00 0.00 99 1008.7
20260510053549 10 216 0.0 0.0 0.00 0.00 0.00 99 1008.5
20260510053046 10 216 0.0 0.0 0.00 0.00 0.00 99 1008.8
20260510052542 10 216 0.0 0.0 0.00 0.00 0.00 99 1008.8
20260510052038 10 217 0.0 0.0 0.00 0.00 0.00 99 1008.5
20260510051534 10 217 0.0 0.0 0.00 0.00 0.00 99 1008.8
20260510051031 10 217 0.0 0.0 0.00 0.00 0.00 99 1008.7
20260510050528 10 217 0.0 0.0 0.00 0.00 0.00 99 1008.6
20260510050025 10 217 0.0 0.0 0.00 0.00 0.00 99 1008.5
20260510045522 10 217 0.0 0.0 0.00 0.00 0.00 99 1008.4
20260510045018 10 208 0.0 1.6 0.00 0.00 0.00 99 1008.4
20260510044515 9 180 0.0 0.0 0.00 0.00 0.00 99 1008.2
20260510044014 9 186 0.0 1.6 0.00 0.00 0.00 99 1008.1
20260510043513 9 160 0.0 0.0 0.00 0.00 0.00 99 1008.2
20260510043009 9 142 1.6 1.6 0.00 0.00 0.00 99 1008.3
20260510042503 9 167 3.2 4.8 0.00 0.00 0.00 99 1008.3
20260510041958 9 120 1.6 3.2 0.00 0.00 0.00 99 1008.2
20260510041455 9 121 1.6 1.6 0.00 0.00 0.00 99 1008.1
20260510040954 9 194 3.2 3.2 0.00 0.00 0.00 99 1008.2
20260510040450 9 152 0.0 0.0 0.00 0.00 0.00 99 1008.1
20260510035946 9 152 0.0 0.0 0.00 0.99 0.99 99 1008.1
20260510035442 9 152 0.0 0.0 0.00 0.99 0.99 99 1008.0
20260510034936 8 152 0.0 0.0 0.00 0.99 0.99 99 1008.0
20260510034435 8 152 0.0 0.0 0.00 0.99 0.99 99 1008.1
20260510033931 8 152 1.6 1.6 0.00 0.99 0.99 99 1008.0
20260510033427 9 152 0.0 0.0 0.00 0.99 0.99 99 1007.9
20260510032924 8 152 0.0 0.0 0.00 0.99 0.99 99 1008.1
20260510032421 9 152 0.0 0.0 0.00 0.99 0.99 99 1008.0
20260510031916 9 152 1.6 1.6 0.00 0.99 0.99 99 1007.7
20260510031413 9 152 1.6 1.6 0.00 0.99 0.99 99 1008.0
20260510030912 9 153 0.0 0.0 0.00 0.99 0.99 99 1007.8
20260510030409 9 153 0.0 0.0 0.00 0.99 0.99 99 1007.9
20260510025907 8 153 0.0 0.0 0.00 0.99 0.99 99 1008.0
20260510025404 8 153 0.0 0.0 0.00 0.99 0.99 99 1007.9
20260510024901 9 153 0.0 0.0 0.00 0.99 0.99 99 1007.8
20260510024357 9 153 0.0 0.0 0.00 0.99 0.99 99 1008.1
20260510023853 9 153 0.0 0.0 0.00 0.99 0.99 99 1008.1
20260510023350 9 153 0.0 0.0 0.00 0.99 0.99 99 1008.2
20260510022848 9 153 0.0 1.6 0.00 0.99 0.99 99 1008.0
20260510022347 10 153 1.6 1.6 0.00 0.99 0.99 99 1008.1
20260510021845 10 153 0.0 0.0 0.00 0.99 0.99 99 1007.9
20260510021344 10 153 0.0 1.6 0.00 0.99 0.99 99 1008.0
20260510020840 9 153 1.6 1.6 0.00 0.99 0.99 99 1008.0
20260510020335 9 153 0.0 0.0 0.00 0.99 0.99 99 1007.9
20260510015831 9 153 0.0 1.6 0.00 0.99 0.99 99 1007.7
20260510015327 9 163 0.0 0.0 0.00 0.99 0.99 99 1008.0
20260510014822 9 163 0.0 1.6 0.00 0.99 0.99 99 1007.9
20260510014320 10 169 0.0 0.0 0.00 0.99 0.99 99 1007.8
20260510013816 9 171 1.6 1.6 0.00 0.99 0.99 99 1007.8
20260510013311 9 186 1.6 1.6 0.00 0.99 0.99 99 1007.8
20260510012806 10 153 0.0 0.0 0.00 0.99 0.99 99 1007.6
20260510012300 10 127 1.6 1.6 0.00 0.99 0.99 99 1007.7
20260510011755 10 157 1.6 1.6 0.00 0.99 0.99 99 1007.4
20260510011251 9 176 0.0 0.0 0.00 0.99 0.99 99 1007.6
20260510010748 9 177 0.0 0.0 0.00 0.99 0.99 99 1007.7
20260510010244 10 177 0.0 0.0 0.00 0.99 0.99 99 1007.5
20260510005742 10 177 0.0 1.6 0.00 0.99 0.99 99 1007.9
20260510005238 10 169 0.0 0.0 0.00 0.99 0.99 99 1007.5
20260510004736 10 103 1.6 1.6 0.00 0.99 0.99 99 1007.4
20260510004233 10 103 1.6 3.2 0.00 0.99 0.99 99 1007.4
20260510003731 10 128 3.2 4.8 0.00 0.99 0.99 99 1007.6
20260510003227 10 177 0.0 0.0 0.00 0.99 0.99 99 1007.4
20260510002725 10 185 0.0 0.0 0.00 0.99 0.99 99 1007.4
20260510002223 10 128 0.0 0.0 0.00 0.99 0.99 99 1007.3
20260510001720 10 165 0.0 0.0 0.00 0.99 0.99 99 1007.2
20260510001219 10 165 0.0 1.6 0.00 0.99 0.99 99 1007.0
20260510000714 10 165 0.0 1.6 0.00 0.99 0.99 99 1007.0
20260510000211 10 165 0.0 1.6 0.00 0.99 0.99 99 1007.2
20260509235708 10 165 0.0 1.6 0.00 0.99 0.99 99 1007.3
20260509235204 10 171 0.0 0.0 0.00 0.99 0.99 99 1006.9
20260509234701 11 177 1.6 1.6 0.00 0.99 0.99 99 1006.8
20260509234158 11 157 0.0 1.6 0.00 0.99 0.99 99 1006.7
20260509233656 11 133 1.6 1.6 0.00 0.99 0.99 99 1006.5
20260509233153 11 208 1.6 1.6 0.00 0.99 0.99 99 1006.4
20260509232649 11 214 0.0 0.0 0.00 0.99 0.99 99 1006.1
20260509232146 11 216 0.0 1.6 0.00 0.99 0.99 99 1006.2
20260509231643 11 216 0.0 0.0 0.00 0.99 0.99 99 1006.2
20260509231140 11 216 0.0 0.0 0.00 0.99 0.99 99 1006.2
20260509230637 11 216 0.0 0.0 0.00 0.99 0.99 99 1006.2
20260509230134 11 216 1.6 1.6 0.00 0.99 0.99 99 1006.4
20260509225630 11 216 0.0 1.6 0.00 0.99 0.99 99 1006.5
20260509225125 11 216 1.6 1.6 0.00 0.99 0.99 99 1006.4
20260509224621 11 216 1.6 1.6 0.00 0.99 0.99 99 1006.5
20260509224118 12 216 1.6 3.2 0.00 0.99 0.99 99 1006.3
20260509223615 12 216 0.0 1.6 0.00 0.99 0.99 99 1006.3
20260509223113 12 216 1.6 1.6 0.00 0.99 0.99 99 1006.7
20260509222608 12 217 0.0 0.0 0.00 0.99 0.99 99 1006.7
20260509222105 11 216 0.0 0.0 0.00 0.99 0.99 99 1006.6
20260509221600 11 217 0.0 1.6 0.00 0.99 0.99 99 1006.6
20260509221056 11 217 0.0 0.0 0.00 0.99 0.99 99 1006.7
20260509220552 11 217 0.0 0.0 0.00 0.99 0.99 99 1006.6
20260509220049 11 209 0.0 0.0 0.00 0.99 0.99 99 1006.5
20260509215544 11 195 1.6 1.6 0.00 0.99 0.99 99 1006.7
20260509215042 11 191 1.6 1.6 0.00 0.99 0.99 99 1006.7
20260509214539 11 198 1.6 1.6 0.00 0.99 0.99 99 1006.9
20260509214036 11 193 0.0 1.6 0.00 0.99 0.99 99 1006.8
20260509213532 11 190 0.0 0.0 0.00 0.99 0.99 99 1006.9
20260509213029 11 189 1.6 1.6 0.00 0.99 0.99 99 1006.9
20260509212526 11 189 0.0 1.6 0.00 0.99 0.99 99 1007.0
20260509212023 11 174 0.0 1.6 0.00 0.99 0.99 99 1007.0
20260509211518 11 169 0.0 0.0 0.00 0.99 0.99 99 1006.8
20260509211016 11 169 0.0 0.0 0.00 0.99 0.99 99 1006.8
20260509210512 10 169 0.0 0.0 0.00 0.99 0.99 99 1006.8
20260509210009 10 169 0.0 1.6 0.00 0.99 0.99 99 1006.8
20260509205503 11 168 0.0 1.6 0.00 0.99 0.99 99 1007.3
20260509204958 10 192 0.0 1.6 0.18 0.99 0.99 99 1007.4
20260509204455 10 204 1.6 1.6 0.18 0.99 0.99 99 1007.4
20260509203951 10 204 1.6 1.6 0.18 0.97 0.97 99 1007.4
20260509203447 10 204 0.0 1.6 0.18 0.97 0.97 99 1007.5
20260509202945 11 204 0.0 1.6 0.00 0.94 0.94 99 1007.2
20260509202441 10 204 0.0 0.0 0.00 0.94 0.94 99 1007.3
20260509201935 11 204 1.6 1.6 0.00 0.94 0.94 99 1007.2
20260509201426 10 204 1.6 1.6 0.13 0.94 0.94 99 1007.4
20260509200923 11 204 1.6 3.2 0.13 0.94 0.94 99 1007.3
20260509200422 11 204 1.6 1.6 0.00 0.91 0.91 99 1007.8
20260509195919 10 204 3.2 3.2 0.00 0.91 0.91 99 1007.7
20260509195415 10 201 1.6 3.2 0.00 0.91 0.91 99 1007.8
20260509194909 10 208 1.6 1.6 0.00 0.91 0.91 99 1008.0
20260509194405 10 208 0.0 0.0 0.18 0.91 0.91 99 1008.0
20260509193901 10 208 1.6 1.6 0.18 0.91 0.91 99 1007.9
20260509193356 10 207 0.0 0.0 0.13 0.89 0.89 99 1008.0
20260509192852 10 211 3.2 3.2 0.13 0.89 0.89 99 1008.3
20260509192348 10 211 3.2 3.2 0.00 0.86 0.86 99 1008.3
20260509191844 10 207 0.0 0.0 0.18 0.86 0.86 99 1008.2
20260509191340 10 206 1.6 1.6 0.30 0.86 0.86 99 1008.3
20260509190836 10 185 4.8 6.4 0.43 0.84 0.84 99 1008.3
20260509190333 10 201 1.6 1.6 0.48 0.81 0.81 99 1008.4
20260509185830 10 254 0.0 1.6 0.43 0.79 0.79 99 1008.5
20260509185327 10 212 3.2 3.2 0.30 0.74 0.74 99 1008.3
20260509184825 10 210 1.6 3.2 0.18 0.71 0.71 99 1008.2
20260509184321 10 215 4.8 4.8 0.13 0.69 0.69 99 1008.4
20260509183817 10 185 1.6 1.6 0.30 0.69 0.69 99 1008.5
20260509183307 10 188 3.2 3.2 0.36 0.66 0.66 99 1008.6
20260509182803 10 184 3.2 3.2 0.36 0.66 0.66 99 1008.4
20260509182300 10 140 4.8 6.4 0.30 0.61 0.61 99 1008.1
20260509181757 11 204 1.6 1.6 0.30 0.58 0.58 99 1008.7
20260509181255 11 202 1.6 1.6 0.13 0.56 0.56 99 1008.7
20260509180752 11 202 1.6 1.6 0.30 0.56 0.56 99 1008.5
20260509180248 11 220 4.8 9.7 0.18 0.53 0.53 99 1008.5
20260509175744 11 195 1.6 3.2 0.13 0.51 0.51 99 1008.6
20260509175241 11 232 1.6 3.2 0.13 0.51 0.51 99 1008.6
20260509174737 11 173 0.0 1.6 0.00 0.48 0.48 99 1008.5
20260509174233 11 184 1.6 1.6 0.00 0.48 0.48 99 1008.5
20260509173729 11 198 1.6 1.6 0.00 0.48 0.48 99 1008.3
20260509173225 11 196 0.0 1.6 0.18 0.48 0.48 99 1008.3
20260509172721 10 198 1.6 1.6 0.18 0.48 0.48 99 1008.3
20260509172217 10 202 1.6 3.2 0.00 0.46 0.46 99 1008.5
20260509171713 10 213 1.6 3.2 0.00 0.46 0.46 99 1008.3
20260509171210 10 194 1.6 1.6 0.13 0.46 0.46 99 1008.4
20260509170707 10 161 0.0 0.0 0.30 0.46 0.46 99 1008.3
20260509170202 10 182 1.6 1.6 0.18 0.43 0.43 99 1008.4
20260509165701 10 225 3.2 4.8 0.18 0.43 0.43 99 1008.5
20260509165156 10 170 1.6 1.6 0.00 0.41 0.41 99 1008.5
20260509164652 10 185 1.6 1.6 0.00 0.41 0.41 99 1008.5
20260509164148 10 181 1.6 1.6 0.00 0.41 0.41 99 1008.4
20260509163646 10 182 1.6 1.6 0.00 0.41 0.41 99 1008.4
20260509163142 10 178 0.0 1.6 0.00 0.41 0.41 99 1008.5
20260509162639 10 165 0.0 0.0 0.00 0.41 0.41 99 1008.4
20260509162135 10 161 0.0 1.6 0.00 0.41 0.41 99 1008.5
20260509161631 10 161 0.0 0.0 0.00 0.41 0.41 99 1008.5
20260509161126 10 172 0.0 0.0 0.00 0.41 0.41 99 1008.4
20260509160623 10 181 0.0 0.0 0.00 0.41 0.41 99 1008.4
20260509160118 10 164 1.6 1.6 0.00 0.41 0.41 99 1008.7
20260509155615 9 164 1.6 1.6 0.13 0.41 0.41 99 1008.6
20260509155111 9 165 0.0 1.6 0.13 0.41 0.41 99 1008.7
20260509154606 9 162 0.0 0.0 0.00 0.38 0.38 99 1008.8